sat.trackr.live / text

‹ back to catalog

ONEWEB-0353

NORAD 49282 · 2021-090D

PAYLOAD ACTIVE UNKNOWN

§ Identity

Operator
Country
UK
Launch date
2021-10-14
Launch site
VOSTO
Launch vehicle
Mass (kg)
RCS (m²)

Purposes: comms

External: N2YO · Heavens-Above · Gunter

§ Orbital elements

Epoch: 2026-09-19T23:28:49.966176Z

Period
109.55 min
Inclination
87.8899°
Eccentricity
0.0002020
Mean motion
13.14504547 rev/d
Perigee alt
1,204.3 km
Apogee alt
1,207.3 km
Semi-major
7,583.9 km
B*
-3.5369e-4
RAAN
270.7995°
Arg perigee
84.7930°
Mean anomaly
275.3430°
Rev number
24,003

§ Raw data

ONEWEB-03531 49282U 21090D   26262.97835609 -.00000118  00000+0 -35369-3 0  99922 49282  87.8899 270.7995 0002020  84.7930 275.3430 13.14504547240037

JSON: /api/v1/satellites/49282 · /tle

For live sub-satellite position, see the globe view (requires WebGL).

§ Visibility from observer

Set your observer location to see the next 7 days of passes ≥ 10°. The values pass through the URL so the page stays shareable.

No JS? Fill the form by hand. The geolocation button needs JavaScript.